[[{"header":{"parameterUnit":"m.s-1","parameterCategory":1,"la1":30.2991,"la2":30.254,"lo1":-89.0895,"lo2":-89.0444,"dy":0.0017,"dx":0.0017,"nx":28,"ny":28,"refTime":"2023-07-30T03:00:00:Z","depth":0,"parameterNumber":2,"parameterNumberName":"U-component_of_WINDS"},"data":[0,0,0,0,0,0,0,0,0,0,0,0,0,0,0,0,0,0,0,0,0,0,0,0,0,0,0,0,0,0,0,0,0,0,0,0,0,0,0,0,0,0,0,0,0,0,0,0,0,0,0,0,0,0,0,0,0,0,3.4632,3.4633,0,3.4658,3.4658,3.4658,3.4515,3.4511,3.4507,3.4503,3.4535,3.454,3.4544,0,0,0,0,0,0,0,0,0,0,0,0,0,3.4466,3.4469,3.4632,3.4633,3.4633,3.4657,3.4658,3.4658,3.4516,3.4511,3.4506,3.4501,3.4534,3.4539,3.4545,0,0,0,0,0,0,0,0,0,0,0,0,0,3.452,3.4471,3.4632,3.4565,3.4559,3.4657,3.4658,3.4658,3.4517,3.4511,3.4504,3.4499,3.4532,3.4539,3.4545,3.4712,0,0,3.4567,3.457,0,0,0,0,0,0,0,0,3.4517,3.4526,3.4574,3.4569,3.4563,3.4577,3.4611,3.4677,3.4518,3.4533,3.4503,3.4496,3.4554,3.4559,3.4578,3.4714,3.4715,3.4568,3.4572,3.4575,3.4577,0,0,0,0,0,0,0,3.4513,3.4524,3.4642,3.4575,3.4568,3.4535,3.4535,3.4623,3.4578,3.4531,3.4521,3.4525,3.455,3.4571,3.4577,3.4716,3.4567,3.4574,3.4578,3.4581,3.4988,3.4995,0,0,0,0,0,0,3.4518,3.4522,3.4642,3.4643,3.4524,3.4543,3.4543,3.4579,3.4577,3.457,3.4531,3.4519,3.4562,3.4569,3.4578,3.4772,3.4575,3.4581,3.4585,3.4982,3.499,3.4997,0,0,0,0,0,0,3.4515,3.453,3.4641,3.458,3.4591,3.4552,3.4593,3.4582,3.4603,3.4576,3.4568,3.456,3.4558,3.4568,3.4679,3.4771,3.4585,3.4591,3.4974,3.4984,3.4993,3.5162,0,0,0,0,0,0,3.451,3.4529,3.4591,3.4582,3.4595,3.4741,3.4598,3.4587,3.4615,3.4599,3.4602,3.4596,3.4554,3.4669,3.4686,3.4777,3.4596,3.4966,3.4979,3.499,3.5148,3.5177,3.5201,0,0,0,0,0,3.4505,3.464,3.4595,3.4611,3.4671,3.4746,3.4754,3.47,3.4623,3.4685,3.4668,3.4596,3.4758,3.4682,3.47,3.4794,3.496,3.4975,3.4989,3.5136,3.5171,3.52,0,0,0,0,0,0,3.4663,3.4637,3.4588,3.4723,3.4738,3.4722,3.4799,3.4739,3.4777,3.4761,3.4695,3.4697,3.482,3.4818,3.4733,3.4955,3.4846,3.4865,3.4951,3.4984,3.501,3.5008,3.4602,0,0,0,0,0,3.4713,3.4775,3.4749,3.4871,3.4881,3.4839,3.487,3.4827,3.484,3.4846,3.4837,3.4854,3.4908,3.4946,3.4995,3.5147,3.5145,3.5221,3.5247,3.5269,3.5287,3.5366,3.5399,3.5046,3.5046,3.5045,0,0,3.4819,3.4812,3.4855,3.4903,3.4909,3.4975,3.4845,3.4921,3.497,3.4858,3.4962,3.4956,3.4971,3.5103,3.516,3.5105,3.5383,3.5288,3.5306,3.5311,3.5385,3.5418,3.5448,3.5056,3.5054,3.5053,0,0,3.5044,3.5045,3.5146,3.5154,3.5164,3.5135,3.516,3.5153,3.5144,3.5246,3.5163,3.5221,3.5317,3.533,3.535,3.5579,3.5515,3.5597,3.5735,3.5813,3.5841,3.5865,3.5947,3.5977,3.5615,3.5615,3.5615,0,3.5174,3.5268,3.5206,3.5287,3.531,3.521,3.5312,3.5324,3.5351,3.537,3.5307,3.5423,3.5427,3.556,3.5616,3.5635,3.5661,3.5597,3.5842,3.5866,3.5887,3.5964,3.5995,3.5625,3.5624,3.5623,3.5622,0,3.5428,3.5495,3.5575,3.56,3.5633,3.5725,3.5677,3.5718,3.5672,3.5651,3.5756,3.5756,3.5802,3.5831,3.5788,3.5958,3.5923,3.5853,3.5741,3.5932,3.6003,3.6032,3.5639,3.5636,3.5633,3.563,0,0,3.5754,3.5742,3.5773,3.5783,3.5786,3.5837,3.5925,3.5967,3.6003,3.6026,3.6097,3.618,3.6113,3.6135,3.6093,3.6162,3.6343,3.6082,3.6082,3.613,3.653,3.6583,3.6618,3.63,3.6305,3.6309,3.6528,0,3.5973,3.6119,3.6065,3.6215,3.6276,3.6181,3.6257,3.6268,3.625,3.63,3.6281,3.634,3.6248,3.6261,3.6325,3.6307,3.6422,3.6291,3.6367,3.637,3.6366,3.6655,3.6712,3.6919,3.6556,3.656,3.6564,0,3.6249,3.6279,3.6435,3.6426,3.645,3.6519,3.6553,3.6602,3.6613,3.6595,3.6619,3.6562,3.6648,3.6537,3.6654,3.6566,3.6594,3.659,3.6597,3.6602,3.6479,3.6668,3.6983,3.7014,3.6607,3.6604,3.6601,0,3.6471,3.6551,3.6653,3.6665,3.6658,3.6708,3.6708,3.6712,3.6741,3.6772,3.679,3.6832,3.6855,3.689,3.6845,3.6768,3.697,3.6855,3.6958,3.6959,3.7005,3.7002,3.7329,3.7024,3.7023,3.7023,3.7022,0,3.6721,3.682,3.6753,3.6816,3.6924,3.6862,3.6971,3.696,3.6965,3.7026,3.6947,3.7006,3.6944,3.6998,3.6964,3.7066,3.7078,3.7066,3.7056,3.7073,3.7075,3.7091,3.7075,3.7031,3.7029,3.7027,3.7026,0,3.6987,3.6946,3.7052,3.7035,3.7034,3.7114,3.7101,3.7159,3.7135,3.7213,3.7228,3.719,3.7249,3.7208,3.7268,3.7245,3.7379,3.7349,3.7375,3.7367,3.7472,3.7463,3.782,3.7863,3.7531,3.7534,3.7537,0,3.715,3.7223,3.7214,3.7248,3.7252,3.7308,3.7336,3.7277,3.7311,3.7328,3.7385,3.7436,3.7474,3.7573,3.7552,3.7598,3.7568,3.769,3.7574,3.7589,3.7569,3.7565,3.7572,3.7714,3.7718,3.7721,3.7723,0,3.7442,3.7418,3.746,3.7497,3.7532,3.7558,3.7578,3.7611,3.7551,3.7593,3.7651,3.768,3.7739,3.7792,3.7829,3.783,3.7768,3.776,3.7786,3.7804,3.7816,3.781,3.7439,3.7752,3.7749,3.7747,3.7745,3.7744,3.7661,3.7721,3.7724,3.7774,3.7782,3.7802,3.7856,3.7837,3.7884,3.7926,3.7889,3.7959,3.7967,3.801,3.8019,3.8073,3.8023,3.8062,3.8071,3.8081,3.8096,3.7807,3.808,3.8079,3.8078,3.8078,3.8077,0,3.7949,3.7945,3.7992,3.8021,3.8061,3.7996,3.8014,3.8052,3.8114,3.8126,3.8164,3.8231,3.8281,3.8264,3.8308,3.8355,3.8328,3.8369,3.8365,3.8366,3.8138,3.8111,3.8391,3.8391,3.839,3.839,3.839,3.839,3.8103,3.8201,3.8177,3.8279,3.8275,3.8341,3.8357,3.8375,3.8384,3.8461,3.8501,3.8489,3.849,3.8533,3.8577,3.857,3.8591,3.8643,3.8626,3.8413,3.8383,3.8353,3.8327,3.8648,3.8648,3.885,3.8851,3.8853]},{"header":{"parameterUnit":"m.s-1","parameterCategory":1,"la1":30.2991,"la2":30.254,"lo1":-89.0895,"lo2":-89.0444,"dy":0.0017,"dx":0.0017,"nx":28,"ny":28,"refTime":"2023-07-30T03:00:00:Z","depth":0,"parameterNumber":3,"parameterNumberName":"V-component_of_WINDS"},"data":[0,0,0,0,0,0,0,0,0,0,0,0,0,0,0,0,0,0,0,0,0,0,0,0,0,0,0,0,0,0,0,0,0,0,0,0,0,0,0,0,0,0,0,0,0,0,0,0,0,0,0,0,0,0,0,0,0,0,3.3461,3.3463,0,3.3617,3.3619,3.3621,3.3645,3.3644,3.3643,3.3641,3.38,3.3805,3.3811,0,0,0,0,0,0,0,0,0,0,0,0,0,3.3182,3.3187,3.3461,3.3463,3.3465,3.3617,3.3619,3.3621,3.3646,3.3644,3.3642,3.3641,3.3798,3.3805,3.3811,0,0,0,0,0,0,0,0,0,0,0,0,0,3.3317,3.3189,3.3461,3.3495,3.35,3.3617,3.3619,3.3622,3.3646,3.3644,3.3642,3.364,3.3796,3.3804,3.3812,3.3905,0,0,3.3837,3.3841,0,0,0,0,0,0,0,0,3.331,3.3328,3.3488,3.3493,3.3499,3.361,3.3579,3.3717,3.3646,3.359,3.3641,3.3639,3.3738,3.3751,3.3785,3.3912,3.3919,3.3838,3.3843,3.3847,3.3849,0,0,0,0,0,0,0,3.33,3.3321,3.3523,3.349,3.3497,3.3503,3.352,3.3605,3.3674,3.3595,3.3597,3.3616,3.3741,3.3777,3.3789,3.3921,3.3838,3.3845,3.385,3.3854,3.4132,3.4135,0,0,0,0,0,0,3.3285,3.3313,3.3518,3.3527,3.3397,3.3509,3.3528,3.3576,3.3673,3.3686,3.3617,3.3616,3.3764,3.3779,3.3795,3.3909,3.3847,3.3854,3.3859,3.413,3.4133,3.4135,0,0,0,0,0,0,3.3279,3.3303,3.3512,3.3421,3.3448,3.3516,3.357,3.358,3.3617,3.369,3.3702,3.3642,3.3763,3.3783,3.3877,3.3915,3.3858,3.3866,3.4127,3.4131,3.4134,3.4139,0,0,0,0,0,0,3.3271,3.3301,3.3337,3.3422,3.3453,3.3592,3.3572,3.3585,3.3631,3.3631,3.3716,3.3728,3.3763,3.3865,3.3885,3.3925,3.3872,3.4124,3.4129,3.4133,3.4136,3.4143,3.4148,0,0,0,0,0,3.3261,3.3332,3.3338,3.3363,3.3499,3.3594,3.3612,3.3651,3.3634,3.3671,3.3718,3.3725,3.3908,3.3874,3.3898,3.3941,3.4122,3.4127,3.4133,3.4133,3.4141,3.4148,0,0,0,0,0,0,3.3249,3.3343,3.3352,3.3453,3.3515,3.3598,3.3645,3.3658,3.3726,3.3723,3.3768,3.3787,3.3879,3.392,3.3881,3.4035,3.4013,3.4024,3.4006,3.4014,3.402,3.4008,3.3879,0,0,0,0,0,3.3258,3.3327,3.3406,3.3487,3.3518,3.3576,3.3619,3.3644,3.371,3.3737,3.3791,3.3854,3.3926,3.3972,3.4042,3.4142,3.4161,3.4183,3.4189,3.4194,3.4202,3.4258,3.4269,3.4154,3.4153,3.4153,0,0,3.3277,3.3338,3.3379,3.3486,3.3538,3.3608,3.3599,3.3674,3.3726,3.3748,3.384,3.3882,3.3956,3.4054,3.4099,3.409,3.4238,3.4201,3.4204,3.421,3.4264,3.4275,3.4285,3.4157,3.4157,3.4156,0,0,3.3349,3.3402,3.3475,3.3527,3.3605,3.3643,3.3661,3.3742,3.3771,3.3865,3.3882,3.3946,3.4068,3.412,3.4163,3.4254,3.4264,3.4276,3.4308,3.4361,3.437,3.4378,3.4411,3.4422,3.4284,3.4284,3.4284,0,3.3363,3.347,3.3511,3.3586,3.3632,3.3656,3.373,3.3778,3.3875,3.3907,3.3895,3.405,3.4101,3.4211,3.4233,3.4267,3.4288,3.4266,3.4366,3.4374,3.4383,3.4414,3.4426,3.4285,3.4285,3.4285,3.4285,0,3.3484,3.3558,3.3608,3.3701,3.3753,3.3827,3.3879,3.3927,3.3947,3.3986,3.4081,3.4144,3.4227,3.4255,3.4276,3.4368,3.436,3.4357,3.4335,3.4394,3.4424,3.4436,3.4286,3.4286,3.4286,3.4285,0,0,3.3551,3.3667,3.3684,3.3727,3.3815,3.3873,3.3948,3.403,3.407,3.4136,3.42,3.4303,3.4301,3.4349,3.4375,3.4422,3.449,3.4413,3.4416,3.4425,3.4596,3.4597,3.461,3.4497,3.45,3.4502,3.4589,0,3.3633,3.3768,3.3806,3.392,3.3989,3.4012,3.4078,3.4138,3.4177,3.4241,3.4284,3.4356,3.4348,3.4377,3.4425,3.4472,3.4525,3.4466,3.4556,3.4559,3.4536,3.4626,3.4628,3.4707,3.4601,3.4603,3.4605,0,3.3745,3.3814,3.3934,3.4014,3.4044,3.4102,3.418,3.4241,3.4311,3.4336,3.439,3.4412,3.4491,3.4465,3.4574,3.4533,3.4573,3.4601,3.4605,3.4615,3.4585,3.4637,3.4734,3.4745,3.4624,3.4622,3.4621,0,3.3782,3.3904,3.3992,3.4028,3.4123,3.4163,3.4205,3.4272,3.4319,3.4387,3.4418,3.4494,3.4536,3.4594,3.4636,3.4614,3.4741,3.4719,3.4763,3.4762,3.4788,3.4786,3.4892,3.4815,3.4815,3.4815,3.4814,0,3.3868,3.394,3.401,3.4064,3.4146,3.419,3.4269,3.4312,3.4372,3.4434,3.4459,3.4517,3.457,3.4634,3.4668,3.4753,3.4771,3.4793,3.4801,3.4791,3.4788,3.4816,3.4812,3.4818,3.4817,3.4816,3.4816,0,3.3922,3.3972,3.4069,3.4151,3.4173,3.423,3.43,3.4353,3.4393,3.4472,3.4493,3.4555,3.4633,3.4681,3.4779,3.4802,3.4895,3.4901,3.4871,3.4875,3.4916,3.4911,3.5043,3.5063,3.4973,3.4974,3.4975,0,3.3973,3.403,3.4118,3.4162,3.4204,3.4274,3.4322,3.4368,3.4416,3.45,3.4543,3.4622,3.4688,3.4811,3.4865,3.494,3.4948,3.4989,3.4959,3.4947,3.4948,3.4944,3.4949,3.4994,3.4994,3.4995,3.4995,0,3.4059,3.4081,3.4149,3.4226,3.4283,3.4345,3.4408,3.4442,3.4499,3.4552,3.4632,3.4683,3.4784,3.4862,3.4942,3.4985,3.4999,3.5005,3.5019,3.5008,3.4988,3.4999,3.4884,3.5001,3.5001,3.5,3.5,3.5,3.4113,3.4164,3.4234,3.431,3.4362,3.442,3.4473,3.4521,3.4588,3.4674,3.4697,3.478,3.4849,3.4958,3.5002,3.5068,3.5062,3.5082,3.5087,3.5091,3.5092,3.4979,3.5082,3.5082,3.5082,3.5082,3.5082,0,3.4199,3.4246,3.4315,3.4401,3.4461,3.447,3.454,3.4589,3.4662,3.4725,3.4789,3.4881,3.4957,3.5017,3.5096,3.5137,3.5145,3.5155,3.5152,3.5162,3.5093,3.5073,3.5147,3.5147,3.5147,3.5147,3.5147,3.5147,3.4251,3.4338,3.4368,3.4481,3.4527,3.4609,3.4648,3.4702,3.4752,3.4853,3.4917,3.4956,3.5018,3.5101,3.5171,3.5187,3.5214,3.5223,3.524,3.5174,3.5167,3.516,3.5141,3.5229,3.5229,3.5303,3.5304,3.5304]}]]